Lid_Strength_Index
-0 -1 -1 -1 -1 1 6 12 15 9 8 12 14 14 12 10 12 12 12 13 13 15 15 16 16 16 14 12 13 16 14 17 18 16 13 12 13 15 13 17 18 17 18 17
0 -0 -1 -1 -0 3 8 13 13 8 9 14 14 13 12 11 12 13 13 13 12 13 15 17 15 15 12 13 14 17 15 17 20 19 15 14 14 14 14 13 15 17 20 18
1 1 -0 -0 -0 2 9 12 15 11 11 12 12 14 13 13 11 12 12 13 13 14 15 14 16 16 13 13 12 9 12 17 18 21 18 16 15 14 14 15 18 19 17 16
1 1 1 0 -0 2 9 13 13 11 13 12 13 13 12 13 14 12 13 14 13 15 18 17 16 15 16 14 12 15 16 19 18 17 15 15 15 14 14 15 16 18 17 16
0 1 1 1 1 3 10 14 14 12 12 11 13 12 13 13 13 13 13 15 14 15 16 15 16 16 18 17 16 18 17 20 18 18 15 15 15 13 13 14 15 15 15 15
0 1 1 1 2 4 9 11 11 11 11 12 13 13 12 13 12 13 13 14 15 16 15 14 14 15 15 16 16 18 18 19 19 20 17 16 17 15 14 15 14 15 16 14
0 0 1 2 3 2 9 11 9 12 14 12 12 11 11 12 13 13 13 14 15 13 12 14 15 16 16 16 16 16 19 18 19 20 18 20 15 13 13 14 12 12 13 12
3 0 0 1 3 2 9 10 10 11 16 13 12 11 12 12 13 14 14 14 13 13 14 17 18 17 17 16 16 17 17 18 19 21 20 17 15 14 14 15 15 11 12 12
3 3 3 1 2 3 4 9 10 13 16 16 11 12 13 15 15 14 13 13 14 13 16 17 19 19 18 18 17 17 16 16 18 19 21 21 16 14 14 14 17 12 11 12
3 3 2 2 1 2 3 8 8 11 15 15 12 13 13 13 13 14 15 13 15 15 18 19 19 19 16 18 18 19 19 19 20 20 21 18 14 13 14 19 16 12 11 11
2 2 2 2 1 1 2 6 7 9 14 14 11 10 12 13 13 14 14 14 16 17 18 19 18 18 17 17 17 17 18 20 20 19 20 20 13 14 17 15 14 12 12 12
3 3 2 2 1 1 1 6 6 9 11 13 9 9 10 10 10 12 15 14 15 15 17 17 17 17 17 17 18 16 17 15 17 16 16 13 12 13 13 13 13 13 12 11
3 3 2 2 2 1 2 6 7 8 11 11 11 11 9 8 10 10 14 15 13 14 13 15 16 17 16 18 18 17 15 14 15 15 13 13 12 11 12 12 12 12 11 11
2 3 2 2 2 1 2 7 6 6 11 14 14 9 10 8 9 10 11 11 11 12 13 15 16 17 15 17 16 16 15 14 15 15 14 13 12 12 11 11 11 12 11 11
2 3 4 2 2 1 2 4 6 5 9 15 15 11 9 9 9 10 10 10 12 13 14 16 16 16 17 17 17 18 16 16 16 16 13 14 14 12 11 11 12 11 11 12
1 1 2 2 2 2 5 8 6 6 9 13 17 12 12 11 10 10 11 11 12 13 14 15 16 15 16 20 20 14 13 13 12 14 14 14 13 12 12 12 11 11 11 11
0 1 1 3 3 3 6 8 6 6 7 12 15 16 13 11 12 12 12 11 11 11 13 15 16 15 16 20 18 14 13 13 13 13 15 14 13 13 12 11 11 10 11 11
-0 1 0 3 3 3 7 6 5 5 9 11 17 18 15 13 14 14 13 13 12 13 14 15 15 16 17 20 13 13 13 13 14 14 13 12 14 13 13 12 11 12 12 12
0 0 1 4 4 6 6 4 5 6 9 15 17 18 19 13 15 14 13 13 15 14 16 16 15 18 20 15 13 13 13 13 13 13 12 13 14 13 13 13 12 12 12 12
0 2 4 6 4 4 4 6 9 10 10 13 17 16 17 15 15 16 14 14 15 20 17 16 18 18 14 12 12 12 13 13 13 14 15 15 15 14 13 13 12 11 12 12
3 5 8 5 2 9 11 14 14 14 15 14 16 16 16 14 16 16 14 16 17 21 18 18 19 21 14 12 12 11 11 11 12 12 11 13 13 13 13 13 12 12 12 12
3 4 3 6 9 13 14 15 14 14 16 14 16 16 14 14 13 15 16 17 18 20 18 20 20 16 12 13 12 12 12 12 12 12 12 12 13 12 12 13 13 13 12 12
2 4 10 12 12 15 15 16 15 16 15 14 15 15 14 13 13 15 15 17 18 17 20 19 18 13 13 13 13 14 13 13 13 13 13 12 13 12 12 12 12 12 11 11
8 10 13 13 15 13 13 12 13 14 13 13 12 15 14 14 14 15 17 16 18 20 20 19 16 14 13 13 14 14 13 13 13 13 13 13 13 13 12 11 11 11 11 11
9 9 12 13 10 11 11 11 12 11 11 11 12 13 14 15 15 15 17 18 19 19 19 17 14 14 14 14 15 14 14 13 13 13 13 13 13 12 12 11 11 11 11 11
9 10 10 10 10 12 11 11 12 10 10 9 12 14 14 15 15 18 18 18 19 17 16 15 15 15 15 15 14 14 14 13 13 13 13 12 12 12 11 11 11 11 10 11
9 10 8 9 11 11 11 10 10 8 9 12 15 17 16 15 18 19 17 18 15 15 15 15 14 14 14 14 14 13 13 14 14 14 13 13 12 11 11 12 12 11 11 10